Regional Weather Roundup
Issued by NWS Charleston, SC

Home | Current Version | Previous Version | Text Only | Print | Product List | Glossary On
Versions: 1 2 3 4 5 6 7 8 9 10 11 12 13 14 15 16 17 18 19 20 21 22 23 24 25 26 27 28 29 30 31 32 33 34 35 36 37 38 39 40 41 42 43 44 45 46 47 48 49 50
000
ASUS42 KCHS 020927
RWRCHS

REGIONAL WEATHER ROUNDUP
NATIONAL WEATHER SERVICE CHARLESTON SC
500 AM EDT WED SEP 02 2015

NOTE: "FAIR" INDICATES FEW OR NO CLOUDS BELOW 12,000 FEET WITH NO
SIGNIFICANT WEATHER AND/OR OBSTRUCTIONS TO VISIBILITY.

NOT ALL STATIONS ARE QUALITY CONTROLLED BY THE NATIONAL
WEATHER SERVICE. USE DATA WITH CAUTION...ESPECIALLY
DEWPOINT OBSERVATIONS.

SCZ027-030-031-034>040-042>050-021000-
...SOUTHEAST SOUTH CAROLINA...

CITY           SKY/WX    TMP DP  RH WIND       PRES   REMARKS
N CHARLESTON   PTCLDY    75  73  93 N5        30.06S
WATERFRONT PRK   N/A     79  77  94 CALM      30.03S
MOUNT PLEASANT FAIR      75  75 100 CALM      30.06S FOG
JOHNS ISLAND   FAIR      77  75  94 CALM      30.06S
PINOPOLIS        N/A     81  75  83 VRB2      30.00R
MONCKS CORNER  FAIR      73  70  88 CALM      30.07R FOG
SUMMERVILLE    CLOUDY    72  72 100 CALM      30.08S FOG
BEAUFORT MCAS  CLEAR     76  75  97 N5        30.06S
BEAUFORT ARPT  NOT AVBL
HILTON HEAD IS NOT AVBL
WALTERBORO     FOG       73  72  94 CALM      30.08S VSB 1
ALLENDALE      PTSUNNY   73  72  94 CALM      30.07S

...SOUTHERN MIDLANDS AND PEE DEE...

CITY           SKY/WX    TMP DP  RH WIND       PRES   REMARKS
GEORGETOWN     NOT AVBL
KINGSTREE      NOT AVBL
ORANGEBURG     PTCLDY    72  70  93 CALM      30.08R FOG
BARNWELL       FAIR      72  72 100 CALM      30.09R
AIKEN          FAIR      68  66  94 CALM      30.12S
MANNING        FAIR      70  70 100 CALM      30.08R
COLUMBIA       PTCLDY    73  69  87 CALM      30.07S
SUMTER         CLEAR     74  72  92 W3        30.05S
FLORENCE       CLEAR     74  72  93 SW3       30.06F
MYRTLE BEACH   CLEAR     75  70  83 CALM      30.08S
N MYRTLE BEACH CLEAR     74  72  93 CALM      30.06S

$$

GAZ063-065-086>088-099>101-113>116-118-119-134>141-150-021000-
...SOUTHEAST GEORGIA...

CITY           SKY/WX    TMP DP  RH WIND       PRES   REMARKS
SAVANNAH ARPT  CLOUDY    75  74  96 N5        30.06S FOG
HUNTER AAF     CLEAR     76  76 100 N1        30.03S
FORT STEWART   CLEAR     73  72  95 CALM      30.03S
STATESBORO     CLEAR     73  32  22 CALM      30.06F HAZE
SYLVANIA       FOG       74  74 100 CALM      30.08S VSB 1
CLAXTON        NOT AVBL

...CSRA...CENTRAL AND FAR SOUTHEAST GEORGIA...

CITY           SKY/WX    TMP DP  RH WIND       PRES   REMARKS
THOMSON        CLEAR     69  69 100 CALM      30.13S
AUGUSTA-BUSH   CLEAR     69  69 100 CALM      30.07S
AUGUSTA-DANIEL CLEAR     75  71  87 CALM      30.09S
SWAINSBORO     FAIR     N/A N/A N/A CALM      30.08S
VIDALIA        FOG       73  73 100 CALM      30.07S VSB 3/4
EASTMAN        FOG       71  71 100 CALM      30.09S VSB 3/4
HAZLEHURST     PTSUNNY   76  76 100 CALM      30.05S
ALMA           MOCLDY    75  74  96 CALM      30.05S
WAYCROSS       CLOUDY    79  79  99 CALM      30.05S
JESUP          FAIR      75  73  94 CALM      30.05S
BAXLEY         CLOUDY    75  73  94 CALM      30.05S
BRUNSWICK      MOCLDY    72  72 100 CALM      30.05S
SAINT SIMONS   CLOUDY    81  77  88 CALM      30.04R

$$

SCZ027-028-034-036>038-045-046-048>050-GAZ119-141-021000-
...LAKE AND SUPPLEMENTAL COASTAL OBSERVATIONS...

STATION/POSITION TIME  TEMP    WIND        PRES    WAVE   SWELL
                       AIR SEA DIR/SP/G            HT/PER HT/PER/DIR
                 (UTC) (F)     (DEG/KT/KT) (MB)    (FT/S) (FT/S/D)
UPR LAKE MARION  NOT AVBL
WINYAH BAY       0800   75     310/  2     1017.0
LAKE MURRAY      0900   77     280/  4/  5 1017.6S
ACE BASIN NERRS  NOT AVBL
FORT PULASKI     0900   79 83  350/  4/  5 1018.0S
SAPELO ISLAND    0900   77        CALM     1017.0S

$$

ANZ835-935-AMZ111-154-330-350-352-354-370-450-454-472-021000-
...C-MAN AND BUOY OBSERVATIONS...

STATION/POSITION TIME  TEMP    WIND        PRES    WAVE   SWELL
                       AIR SEA DIR/SP/G            HT/PER HT/PER/DIR
                 (UTC) (F)     (DEG/KT/KT) (MB)    (FT/S) (FT/S/D)
BUOY 41004       0850   82 83  240/  4/  6 1017.3S   2/ 7   2/ 7
BUOY 41008       0850   83 84  190/  8/ 10 1017.5F   2/ 8   2/110/ 8
FOLLY BEACH CMAN 0900   78     320/  3/  3 1017.9S
CAPERS NEARSHORE 0808   82     300/  6/  8 1018.0R
FRIPP NEARSHORE  0800   82     240/  6/  6 1017.5F


STATION/POSITION TIME  TEMP    WIND        PRES    WAVE   SWELL
                       AIR SEA DIR/SP/G            HT/PER HT/PER/DIR
                 (UTC) (F)     (DEG/KT/KT) (MB)    (FT/S) (FT/S/D)
5E ST. MARYS GA  0821      85                N/A     2/10
FRYING PAN BUOY  0850   82 81  260/  8/  8 1018.3F   2/ 9   2/100/ 9
BUOY 41025       0850   80 83  300/  8/ 10 1017.0F   2/ 9   2/140/ 9
CAPE LOOKOUT NC  0900   79     280/  9/  9 1017.1F
BUOY 41002       0850   84 84  290/  8/ 10 1017.2F   3/ 9   2/100/ 9
BUOY 41010       0820   84 86  120/  2/  4 1017.9F
ST AUGUSTINE FL  0900   80 83  200/  6/  8 1017.9F


$$


USA.gov is the U.S. government's official web portal to all federal, state and local government web resources and services.